Regional Weather Roundup
Issued by NWS

Home | Current Version | Previous Version | Graphics & Text | Print | Product List | Glossary On
Versions: 1 2 3 4 5 6 7 8 9 10 11 12 13 14 15 16 17 18 19 20 21 22 23 24 25 26 27 28 29 30 31 32 33 34 35 36 37 38 39 40 41 42 43 44 45 46 47 48 49 50
708
ASUS44 KJAN 231203
RWRMS

MISSISSIPPI HOURLY WEATHER ROUNDUP
NATIONAL WEATHER SERVICE JACKSON MS
700 AM CDT WED JUL 23 2014

NOTE: "FAIR: INDICATES FEW OR NO CLOUDS BELOW 12,000 FEET WITH NO
SIGNIFICANT WEATHER AND/OR OBSTRUCTIONS TO VISIBILITY.

MSZ001>002-007>008-010>013-018>021-025>028-034>036-231300-
NORTHWEST MISSISSIPPI

CITY           SKY/WX    TMP DP  RH WIND       PRES   REMARKS
CLARKSDALE     FAIR      72  72 100 CALM      30.07S
CLEVELAND        N/A     72  72 100 CALM      30.06R FOG
GREENWOOD      PTCLDY    72  71  97 CALM      30.06S FOG
6HR MIN TEMP:  70; 6HR MAX TEMP:  73;

GREENVILLE     CLEAR     73  71  93 SE3       30.06R
6HR MIN TEMP:  72; 6HR MAX TEMP:  76;

GRENADA        FAIR      68  68 100 CALM      30.07R
OLIVE BRANCH   MOSUNNY   73  73 100 CALM      30.07S FOG
OXFORD         FAIR      70  68  94 CALM      30.10R FOG
TUNICA         SUNNY     72  70  94 CALM      30.07S FOG
$$

MSZ003>006-009-014>017-022>024-029>033-037>039-231300-
NORTHEAST MISSISSIPPI

CITY           SKY/WX    TMP DP  RH WIND       PRES   REMARKS
BELMONT        FAIR      71  71  98 CALM      30.09R FOG
COLUMBUS AFB   PTSUNNY   74  74 100 CALM      30.09R
6HR MIN TEMP:  73; 6HR MAX TEMP:  75;

CORINTH        FAIR      72  70  94 W3        30.08R FOG
GOLDN TRIANGLE PTSUNNY   73  70  88 CALM      30.09R
STARKVILLE     FAIR      72  70  94 CALM      30.08R FOG
TUPELO         MOSUNNY   74  72  93 CALM      30.08R
6HR MIN TEMP:  73; 6HR MAX TEMP:  75;

$$

MSZ040-058-231300-
CENTRAL MISSISSIPPI

CITY           SKY/WX    TMP DP  RH WIND       PRES   REMARKS
JACKSON INTL   MOCLDY    73  71  93 CALM      30.08R
6HR MIN TEMP:  72; 6HR MAX TEMP:  75; 6HR PCP: TRACE;

JACKSON HAWKNS PTCLDY    74  70  87 CALM      30.08R
6HR MIN TEMP:  73; 6HR MAX TEMP:  75;

MERIDIAN KEY   FOG       68  68 100 CALM      30.08R VSB 1/2
6HR MIN TEMP:  66; 6HR MAX TEMP:  70; 6HR PCP:  0.01;

MERIDIAN NAS   FOG       70  69  97 CALM      30.08S VSB 1/4
6HR MIN TEMP:  69; 6HR MAX TEMP:  71;

RAYMOND        FAIR      72  66  83 CALM      30.08R HAZE
VICKSBURG      PTCLDY    72  71  97 CALM      30.07R FOG
6HR MIN TEMP:  70; 6HR MAX TEMP:  75;

$$

MSZ059>079-231300-
SOUTH MISSISSIPPI

CITY           SKY/WX    TMP DP  RH WIND       PRES   REMARKS
BROOKHAVEN     FAIR      66  66 100 CALM      30.09S FOG
COLUMBIA       FOG       68  66  94 CALM      30.07R VSB<1/4
HATTIESBURG    FOG       68  68 100 CALM      30.08R VSB 1/4
6HR MIN TEMP:  68; 6HR MAX TEMP:  69;

MCCOMB         MOCLDY    68  67  96 N5        30.08R FOG
6HR MIN TEMP:  67; 6HR MAX TEMP:  70;

NATCHEZ        PTCLDY    70  68  94 CALM      30.08R
6HR MIN TEMP:  70; 6HR MAX TEMP:  75;

PINE BELT      CLOUDY    66  64  94 CALM      30.09R VSB<1/4
6HR MIN TEMP:  64; 6HR MAX TEMP:  68; 6HR PCP:  0.01;

$$

MSZ080>082-231300-
COASTAL MISSISSIPPI

CITY           SKY/WX    TMP DP  RH WIND       PRES   REMARKS
BAY ST LOUIS   CLEAR    N/A N/A N/A CALM      30.04
BILOXI         CLEAR     71  70  96 NE6       30.06R
6HR MIN TEMP:  70; 6HR MAX TEMP:  72;

PASCAGOULA     CLEAR     71  69  93 N3        30.06R
6HR MIN TEMP:  70; 6HR MAX TEMP:  72;

GULFPORT       CLEAR     73  68  84 NE3       30.04R
6HR MIN TEMP:  72; 6HR MAX TEMP:  74;

$$



USA.gov is the U.S. government's official web portal to all federal, state and local government web resources and services.